TimeCST,TemperatureF,Dew PointF,Humidity,Sea Level PressureIn,VisibilityMPH,Wind Direction,Wind SpeedMPH,Gust SpeedMPH,PrecipitationIn,Events,Conditions,WindDirDegrees,DateUTC
12:15 AM,19.4,14.0,80,30.05,10.0,West,18.4,25.3,N/A,,Clear,280,2012-11-12 06:15:00
12:55 AM,19.4,14.0,80,30.06,10.0,North,-9999.0,-,N/A,,Clear,0,2012-11-12 06:55:00
1:15 AM,19.4,14.0,80,30.06,10.0,West,19.6,25.3,N/A,,Clear,280,2012-11-12 07:15:00
1:35 AM,19.4,14.0,80,30.05,10.0,West,19.6,-,N/A,,Clear,280,2012-11-12 07:35:00
1:55 AM,19.4,14.0,80,30.05,10.0,West,17.3,23.0,N/A,,Clear,270,2012-11-12 07:55:00
2:15 AM,19.4,14.0,80,30.06,10.0,West,17.3,23.0,N/A,,Clear,270,2012-11-12 08:15:00
2:35 AM,19.4,14.0,80,30.07,10.0,West,16.1,23.0,N/A,,Clear,270,2012-11-12 08:35:00
2:55 AM,19.4,14.0,80,30.06,10.0,West,15.0,-,N/A,,Clear,270,2012-11-12 08:55:00
3:15 AM,19.4,14.0,80,30.06,10.0,West,15.0,-,N/A,,Clear,270,2012-11-12 09:15:00
3:35 AM,19.4,14.0,80,30.06,10.0,West,17.3,-,N/A,,Clear,270,2012-11-12 09:35:00
3:55 AM,19.4,12.2,74,30.06,10.0,West,15.0,21.9,N/A,,Clear,260,2012-11-12 09:55:00
4:15 AM,17.6,12.2,79,30.06,10.0,West,15.0,-,N/A,,Clear,260,2012-11-12 10:15:00
4:35 AM,17.6,14.0,86,30.06,10.0,West,15.0,-,N/A,,Clear,260,2012-11-12 10:35:00
4:55 AM,17.6,14.0,86,30.07,10.0,West,16.1,-,N/A,,Clear,260,2012-11-12 10:55:00
5:15 AM,17.6,14.0,86,30.07,10.0,West,16.1,-,N/A,,Clear,260,2012-11-12 11:15:00
5:35 AM,17.6,12.2,79,30.07,10.0,West,15.0,-,N/A,,Clear,260,2012-11-12 11:35:00
5:55 AM,17.6,12.2,79,30.07,10.0,West,13.8,-,N/A,,Clear,260,2012-11-12 11:55:00
6:15 AM,19.4,14.0,80,30.07,10.0,West,15.0,-,N/A,,Scattered Clouds,260,2012-11-12 12:15:00
6:35 AM,19.4,14.0,80,30.07,10.0,West,16.1,-,N/A,,Overcast,260,2012-11-12 12:35:00
6:55 AM,19.4,14.0,80,30.08,10.0,West,21.9,-,N/A,,Mostly Cloudy,270,2012-11-12 12:55:00
7:15 AM,19.4,14.0,80,30.08,10.0,West,20.7,27.6,N/A,,Partly Cloudy,270,2012-11-12 13:15:00
7:35 AM,19.4,14.0,80,30.10,-9999.0,West,17.3,-,N/A,,Clear,270,2012-11-12 13:35:00
7:55 AM,19.4,14.0,80,30.10,10.0,West,17.3,24.2,N/A,,Clear,270,2012-11-12 13:55:00
8:15 AM,21.2,14.0,74,30.10,10.0,West,19.6,-,N/A,,Clear,270,2012-11-12 14:15:00
8:35 AM,21.2,15.8,80,30.10,10.0,West,23.0,-,N/A,,Clear,280,2012-11-12 14:35:00
8:55 AM,23.0,15.8,74,30.11,10.0,West,25.3,33.4,N/A,,Clear,280,2012-11-12 14:55:00
9:15 AM,23.0,15.8,74,30.12,10.0,WNW,26.5,35.7,N/A,,Clear,290,2012-11-12 15:15:00
9:55 AM,24.8,15.8,69,30.13,10.0,West,20.7,28.8,N/A,,Clear,280,2012-11-12 15:55:00
10:15 AM,26.6,15.8,64,30.13,10.0,West,25.3,-,N/A,,Clear,280,2012-11-12 16:15:00
10:35 AM,26.6,15.8,64,30.14,10.0,WNW,24.2,-,N/A,,Clear,290,2012-11-12 16:35:00
10:55 AM,26.6,15.8,64,30.14,10.0,West,24.2,-,N/A,,Clear,280,2012-11-12 16:55:00
11:15 AM,28.4,15.8,59,30.15,10.0,WNW,23.0,34.5,N/A,,Clear,290,2012-11-12 17:15:00
11:35 AM,28.4,15.8,59,30.15,10.0,West,25.3,33.4,N/A,,Clear,280,2012-11-12 17:35:00
11:55 AM,28.4,14.0,55,30.15,10.0,West,28.8,35.7,N/A,,Clear,280,2012-11-12 17:55:00
12:15 PM,30.2,15.8,55,30.15,10.0,WNW,24.2,34.5,N/A,,Clear,290,2012-11-12 18:15:00
12:35 PM,30.2,14.0,51,30.16,10.0,WNW,23.0,33.4,N/A,,Clear,290,2012-11-12 18:35:00
12:55 PM,30.2,14.0,51,30.15,10.0,WNW,25.3,33.4,N/A,,Clear,290,2012-11-12 18:55:00
1:15 PM,32.0,14.0,48,30.16,10.0,WNW,28.8,36.8,N/A,,Clear,290,2012-11-12 19:15:00
1:35 PM,32.0,14.0,48,30.16,10.0,WNW,27.6,34.5,N/A,,Clear,290,2012-11-12 19:35:00
1:55 PM,32.0,14.0,48,30.17,10.0,WNW,28.8,-,N/A,,Clear,290,2012-11-12 19:55:00
2:15 PM,32.0,14.0,48,30.17,10.0,WNW,26.5,34.5,N/A,,Clear,290,2012-11-12 20:15:00
2:35 PM,32.0,14.0,48,30.18,10.0,WNW,24.2,33.4,N/A,,Clear,290,2012-11-12 20:35:00
2:55 PM,32.0,15.8,51,30.19,10.0,WNW,24.2,31.1,N/A,,Clear,300,2012-11-12 20:55:00
3:15 PM,32.0,15.8,51,30.19,10.0,WNW,27.6,-,N/A,,Clear,290,2012-11-12 21:15:00
3:35 PM,32.0,15.8,51,30.20,10.0,WNW,23.0,29.9,N/A,,Clear,290,2012-11-12 21:35:00
3:55 PM,32.0,14.0,48,30.21,10.0,WNW,23.0,-,N/A,,Clear,290,2012-11-12 21:55:00
4:35 PM,30.2,15.8,55,30.23,-9999.0,WNW,15.0,23.0,N/A,,Clear,290,2012-11-12 22:35:00
4:55 PM,30.2,15.8,55,30.23,10.0,West,15.0,-,N/A,,Clear,280,2012-11-12 22:55:00
5:15 PM,28.4,15.8,59,30.23,10.0,WNW,11.5,18.4,N/A,,Clear,290,2012-11-12 23:15:00
5:35 PM,26.6,15.8,64,30.24,10.0,WNW,11.5,-,N/A,,Clear,290,2012-11-12 23:35:00
5:55 PM,26.6,15.8,64,30.25,10.0,WNW,9.2,-,N/A,,Clear,290,2012-11-12 23:55:00
6:15 PM,24.8,15.8,69,30.26,10.0,WNW,8.1,-,N/A,,Clear,290,2012-11-13 00:15:00
6:35 PM,23.0,15.8,74,30.27,10.0,West,9.2,-,N/A,,Clear,280,2012-11-13 00:35:00
6:55 PM,23.0,15.8,74,30.28,10.0,West,9.2,-,N/A,,Clear,270,2012-11-13 00:55:00
7:15 PM,23.0,15.8,74,30.28,10.0,West,9.2,-,N/A,,Clear,270,2012-11-13 01:15:00
7:35 PM,23.0,15.8,74,30.29,10.0,West,6.9,-,N/A,,Clear,270,2012-11-13 01:35:00
7:55 PM,21.2,15.8,80,30.29,10.0,West,9.2,-,N/A,,Clear,280,2012-11-13 01:55:00
8:15 PM,23.0,15.8,74,30.30,10.0,West,9.2,-,N/A,,Clear,270,2012-11-13 02:15:00
8:35 PM,21.2,15.8,80,30.30,10.0,West,9.2,-,N/A,,Clear,260,2012-11-13 02:35:00
8:55 PM,23.0,14.0,68,30.30,10.0,West,9.2,-,N/A,,Clear,270,2012-11-13 02:55:00
9:15 PM,21.2,14.0,74,30.30,10.0,West,10.4,-,N/A,,Clear,270,2012-11-13 03:15:00
9:35 PM,23.0,14.0,68,30.30,10.0,West,9.2,-,N/A,,Clear,270,2012-11-13 03:35:00
9:55 PM,21.2,14.0,74,30.31,10.0,West,9.2,-,N/A,,Clear,270,2012-11-13 03:55:00
10:15 PM,21.2,14.0,74,30.31,10.0,WNW,9.2,-,N/A,,Clear,290,2012-11-13 04:15:00
10:35 PM,23.0,14.0,68,30.32,10.0,West,9.2,-,N/A,,Clear,270,2012-11-13 04:35:00
10:55 PM,23.0,14.0,68,30.32,10.0,WSW,5.8,-,N/A,,Clear,240,2012-11-13 04:55:00
11:15 PM,19.4,12.2,74,30.32,10.0,SSW,4.6,-,N/A,,Clear,210,2012-11-13 05:15:00
11:35 PM,17.6,12.2,79,30.32,10.0,SSW,6.9,-,N/A,,Clear,210,2012-11-13 05:35:00
11:55 PM,19.4,14.0,80,30.32,10.0,SSW,6.9,-,N/A,,Clear,210,2012-11-13 05:55:00